sat.trackr.live / text

‹ back to catalog

STARLINK-34140

NORAD 64085 · 2025-107X

PAYLOAD ACTIVE UNKNOWN

§ Identity

Operator
Country
US
Launch date
2025-05-21
Launch site
AFETR
Launch vehicle
Mass (kg)
RCS (m²)

Purposes: comms

External: N2YO · Heavens-Above · Gunter

§ Orbital elements

Epoch: 2026-05-25T00:28:41.023200Z

Period
94.27 min
Inclination
43.0047°
Eccentricity
0.0002751
Mean motion
15.27603757 rev/d
Perigee alt
481.1 km
Apogee alt
484.9 km
Semi-major
6,861.1 km
B*
7.2081e-4
RAAN
130.5199°
Arg perigee
290.3731°
Mean anomaly
69.6825°
Rev number
5,777

§ Raw data

STARLINK-341401 64085U 25107X   26145.01991925  .00019641  00000+0  72081-3 0  99932 64085  43.0047 130.5199 0002751 290.3731  69.6825 15.27603757 57776

JSON: /api/v1/satellites/64085 · /tle

For live sub-satellite position, see the globe view (requires WebGL).

§ Visibility from observer

Set your observer location to see the next 7 days of passes ≥ 10°. The values pass through the URL so the page stays shareable.

No JS? Fill the form by hand. The geolocation button needs JavaScript.